Wind_Speed
28 28 28 27 28 29 29 30 31 29 28 27 28 29 29 30 30 30 30 31 32 32 31 32 33 34 34 35 36 37 38 40 40 41 42 43 44 45 45 46 46 46 47 48
27 28 28 27 27 28 29 29 29 28 27 26 28 29 29 29 30 30 29 30 31 31 31 32 32 32 33 34 35 36 37 39 39 40 41 42 43 44 45 46 46 46 47 47
27 28 28 27 25 26 27 27 28 28 26 25 26 28 29 29 30 30 29 29 29 30 30 30 31 32 33 33 34 35 37 38 39 40 41 42 43 44 44 45 45 46 46 47
27 27 28 26 25 26 26 26 26 27 26 26 26 27 27 27 28 28 28 29 29 29 29 30 31 32 33 34 35 36 37 38 40 41 42 42 42 43 43 44 45 45 46 46
27 28 27 25 25 25 25 25 24 25 25 25 26 26 26 26 26 26 27 27 28 28 29 29 30 31 33 34 35 36 37 38 39 40 41 42 42 42 42 43 44 44 44 44
26 27 26 24 24 24 25 24 23 24 25 25 26 26 25 25 25 25 25 26 27 28 28 29 29 31 32 34 35 35 36 36 37 38 39 40 41 42 42 43 43 43 43 43
25 26 24 23 23 23 23 23 24 24 24 25 25 25 25 25 25 25 25 26 27 28 28 29 30 31 32 33 34 34 34 35 36 36 37 38 39 40 41 41 41 42 42 42
24 24 23 22 22 22 22 21 22 22 22 23 24 24 24 24 24 25 25 26 27 28 28 29 30 31 32 32 33 33 34 35 35 35 36 36 37 38 38 38 39 40 41 40
23 22 21 21 21 21 21 21 21 21 21 21 21 22 22 23 23 23 24 25 26 27 27 28 29 30 31 32 33 33 34 34 35 35 36 36 37 37 37 37 38 39 39 39
22 21 21 21 21 22 22 22 21 21 21 21 21 22 22 23 23 23 24 25 26 26 27 28 29 30 31 32 33 34 35 35 36 36 36 37 37 37 38 38 38 38 38 38
21 20 20 19 21 22 23 23 23 23 22 22 22 22 23 23 24 25 25 25 26 27 28 29 29 30 31 32 33 34 35 35 35 36 36 36 36 36 37 37 38 37 37 38
20 20 20 20 21 22 23 23 23 23 23 23 23 23 23 24 25 25 26 26 27 28 28 29 30 31 32 33 33 34 34 35 35 35 36 36 36 36 37 37 37 37 38 38
21 21 21 21 22 23 23 23 23 23 23 24 24 24 24 24 25 25 26 26 27 28 29 30 31 31 32 33 34 34 34 34 34 35 35 35 36 36 37 37 37 38 38 37
21 21 21 21 22 22 23 23 23 23 23 23 24 24 24 25 25 25 25 26 27 28 29 30 31 31 32 32 33 33 33 33 34 34 34 34 35 36 36 36 36 36 36 36
22 22 21 21 21 22 23 23 23 23 23 24 24 24 25 25 26 26 26 27 27 28 29 29 30 30 31 31 32 32 32 33 33 33 33 33 34 34 35 35 35 35 35 35
23 23 23 23 22 22 22 23 23 23 23 24 24 25 25 25 26 26 26 26 27 28 28 28 29 30 31 32 32 32 32 31 32 31 31 32 32 33 33 33 34 34 35 35
23 23 24 23 23 23 23 23 23 23 23 24 25 26 26 26 26 26 26 26 27 27 28 29 29 30 31 31 31 31 30 31 31 30 30 31 31 31 31 32 33 33 33 33
23 24 24 24 23 23 23 23 23 23 24 24 25 25 26 26 26 26 26 27 27 27 28 29 29 30 30 30 30 30 30 30 30 30 30 31 31 30 30 30 31 31 31 31
23 24 24 24 24 24 24 24 24 24 24 25 25 25 25 25 25 25 25 26 27 28 29 29 30 30 30 29 29 29 29 29 29 30 30 30 30 30 29 29 29 29 29 29
23 23 23 24 24 24 23 23 23 23 24 24 25 25 25 24 24 25 26 27 27 28 28 29 29 29 29 29 29 29 29 29 29 29 29 29 28 28 27 26 26 26 27 27
23 23 23 23 23 23 23 23 23 23 24 24 24 24 24 25 25 26 27 27 28 28 29 29 29 29 28 28 28 29 29 29 28 28 28 28 27 27 26 26 27 27 27 26
23 24 24 24 24 23 23 23 23 24 24 24 24 24 25 25 26 27 27 27 28 29 30 29 29 28 28 28 28 29 29 28 28 28 27 27 26 26 27 27 27 27 25 24
23 23 23 23 22 22 22 22 23 23 23 23 24 24 25 26 26 27 27 28 29 29 30 29 29 28 28 28 28 28 28 28 28 28 27 27 26 26 26 26 26 25 24 23
22 22 22 21 21 21 21 22 23 23 23 23 24 25 25 26 26 26 27 28 28 29 29 28 28 28 27 27 27 27 27 27 27 26 26 25 25 25 25 25 24 24 23 22
20 20 20 19 19 20 21 22 23 23 23 24 24 24 25 25 26 26 27 27 28 28 28 27 27 26 26 27 26 27 27 26 25 25 25 25 25 25 25 24 23 23 22 21
18 18 19 19 19 20 21 21 22 22 23 23 23 24 24 25 26 26 26 27 27 27 27 26 25 25 25 26 26 26 26 25 24 24 24 24 25 25 24 23 22 21 20 20
17 17 18 19 19 20 20 21 21 22 23 23 23 24 24 25 25 26 26 27 27 27 26 25 25 24 24 25 25 24 24 23 23 23 23 23 23 23 23 22 21 20 20 19
Wind_Direction
265 266 267 268 267 267 267 268 269 270 269 269 269 270 269 268 269 269 270 270 268 268 267 267 267 266 266 266 266 265 264 264 266 266 265 266 267 267 268 269 270 271 272 272
264 265 267 267 268 268 268 269 271 272 271 271 269 267 268 267 268 269 270 269 268 267 267 266 267 267 267 268 267 267 266 266 266 267 267 267 268 268 268 269 270 271 272 273
264 265 267 267 269 269 269 269 271 271 273 271 269 269 268 268 268 268 269 269 268 267 268 268 268 268 269 270 270 270 270 269 269 268 268 269 269 269 269 269 270 271 272 273
264 265 267 271 270 270 271 271 272 272 272 271 271 270 269 270 270 269 268 268 268 267 267 269 270 270 271 272 272 273 273 273 272 270 269 268 269 269 270 270 271 272 273 274
265 266 268 269 272 273 274 273 273 273 273 271 271 271 270 271 270 270 270 270 269 269 270 271 272 273 274 275 275 275 276 276 275 273 271 270 270 270 271 272 272 273 274 274
266 267 270 271 271 272 273 274 273 274 273 273 272 272 272 272 272 271 272 272 272 272 273 274 276 277 277 277 277 278 277 277 277 276 274 272 271 271 272 273 273 273 273 273
267 270 271 271 271 272 274 275 275 275 275 275 274 274 272 272 273 273 274 275 275 275 275 276 278 280 280 280 280 280 279 279 280 279 277 275 274 273 273 274 274 274 274 274
267 270 272 272 271 272 275 275 275 276 276 275 273 273 273 274 274 275 276 278 277 277 278 279 281 282 282 282 282 282 281 281 281 280 280 279 277 276 275 275 275 276 275 275
266 269 271 271 271 271 273 274 275 276 276 276 276 275 275 277 278 277 279 280 281 280 281 283 284 284 284 283 282 282 283 283 283 282 281 280 278 276 275 275 276 276 276 276
265 266 269 269 270 271 273 274 275 275 276 277 278 278 278 280 279 279 280 282 283 283 283 284 285 286 285 285 284 285 285 284 284 283 282 280 278 276 276 276 277 277 277 276
265 267 269 269 270 271 274 276 277 277 276 277 278 280 281 281 280 281 282 283 284 286 286 288 288 289 289 288 287 286 286 286 285 285 284 282 279 277 277 277 278 278 278 277
266 267 269 269 271 273 274 275 276 276 274 276 279 280 281 281 281 282 283 285 286 287 288 290 291 292 292 291 290 289 288 288 287 286 285 283 280 279 278 278 279 279 278 278
266 267 269 271 272 272 273 274 275 274 274 276 279 282 283 282 283 284 285 286 287 288 290 291 293 293 294 293 292 292 291 290 289 288 287 284 282 280 279 279 280 280 280 280
266 268 271 272 272 273 273 274 274 273 275 277 279 282 283 283 284 285 286 287 289 290 292 294 295 296 296 296 295 294 294 293 292 291 289 287 285 283 281 280 280 280 281 281
265 268 270 272 273 275 276 275 273 274 275 277 279 282 284 285 285 286 286 288 290 293 295 296 297 298 298 298 298 297 296 295 295 293 291 289 288 287 286 284 282 281 281 282
265 269 272 273 276 277 277 276 274 275 275 277 279 282 284 286 286 287 288 290 292 295 297 298 299 300 300 300 299 299 299 298 297 295 294 293 292 291 290 287 284 283 282 282
266 269 272 274 276 276 277 277 276 275 276 278 281 282 284 286 287 288 288 290 293 296 298 300 301 302 301 301 301 301 301 302 301 299 297 296 296 295 293 290 287 285 284 282
266 269 271 274 276 276 278 279 278 278 278 279 281 284 286 287 287 288 288 290 293 297 299 301 302 303 303 303 303 303 304 304 303 300 299 298 298 297 296 294 290 288 286 285
268 270 272 274 275 275 278 279 279 279 280 280 282 284 286 286 287 288 289 291 294 297 299 301 301 303 304 305 305 305 306 305 303 302 300 300 300 299 297 296 294 291 289 287
270 272 274 274 276 276 278 280 279 279 280 281 282 284 285 286 287 289 291 293 294 296 299 300 302 303 303 304 305 307 307 306 305 303 301 301 302 302 300 298 296 294 291 289
272 273 274 275 275 275 277 279 279 278 279 281 283 284 285 287 288 290 291 293 295 297 299 300 302 303 303 303 305 308 309 309 308 306 304 303 302 302 301 299 298 297 293 290
273 274 275 275 275 275 277 280 280 279 280 280 282 285 286 287 288 290 292 294 296 298 299 300 301 302 303 304 306 308 309 308 309 310 308 306 304 302 302 300 299 297 294 291
274 275 276 276 276 276 278 280 281 280 280 281 283 286 287 288 290 291 292 295 297 299 300 300 300 300 303 305 306 307 307 308 309 310 309 308 307 305 304 303 301 298 296 293
275 277 276 276 276 277 279 281 283 282 282 282 284 286 288 289 291 292 294 295 298 300 300 299 299 300 302 304 305 306 308 308 309 310 310 309 308 307 306 305 304 301 297 294
274 275 275 275 276 278 280 283 284 284 284 284 285 287 288 289 291 293 295 297 299 301 301 300 300 300 301 302 303 306 307 308 308 310 311 310 310 308 308 307 305 302 297 294
273 274 275 276 278 281 283 285 286 286 287 287 288 289 290 290 292 295 297 298 300 301 301 301 300 301 301 302 303 305 307 307 308 310 310 311 311 309 308 307 306 304 300 295
273 274 276 278 280 283 285 287 289 289 290 289 289 290 290 292 294 296 298 299 301 301 301 300 299 300 302 303 305 307 307 307 308 309 311 312 312 311 310 309 308 306 302 298
Height
5597 5597 5597 5598 5598 5598 5597 5597 5597 5599 5600 5603 5602 5601 5601 5601 5601 5601 5601 5601 5600 5600 5600 5600 5600 5600 5601 5601 5601 5601 5601 5602 5602 5602 5603 5603 5604 5604 5604 5604 5604 5604 5604 5604
5589 5589 5589 5590 5591 5591 5590 5590 5590 5591 5592 5594 5593 5593 5593 5593 5593 5593 5593 5592 5591 5591 5591 5591 5591 5591 5591 5591 5591 5591 5591 5591 5591 5591 5591 5591 5591 5591 5591 5591 5591 5591 5590 5590
5581 5582 5581 5583 5585 5584 5584 5584 5583 5583 5586 5585 5585 5585 5585 5585 5585 5585 5585 5584 5583 5583 5582 5582 5582 5582 5582 5582 5581 5581 5580 5580 5579 5579 5579 5578 5578 5578 5578 5578 5578 5577 5577 5576
5573 5575 5574 5579 5578 5577 5576 5577 5576 5576 5577 5577 5577 5577 5577 5577 5577 5576 5576 5576 5575 5574 5574 5574 5573 5573 5572 5572 5571 5570 5569 5568 5568 5567 5566 5566 5565 5565 5565 5565 5564 5564 5563 5562
5566 5566 5567 5571 5570 5570 5569 5570 5570 5569 5569 5569 5569 5569 5570 5569 5569 5569 5568 5568 5567 5566 5566 5565 5565 5564 5563 5562 5561 5560 5559 5557 5556 5555 5554 5554 5553 5553 5552 5552 5551 5551 5550 5549
5560 5559 5560 5565 5564 5562 5563 5563 5563 5562 5561 5561 5561 5562 5563 5562 5561 5560 5560 5559 5558 5558 5557 5557 5556 5555 5554 5552 5551 5549 5548 5546 5545 5543 5542 5542 5541 5541 5540 5539 5538 5538 5537 5536
5553 5552 5554 5557 5556 5556 5557 5557 5556 5555 5554 5554 5554 5554 5555 5554 5553 5552 5552 5551 5550 5549 5549 5548 5547 5546 5544 5543 5541 5539 5537 5535 5534 5532 5531 5530 5529 5528 5527 5526 5526 5525 5525 5524
5547 5547 5551 5550 5549 5549 5549 5549 5548 5547 5547 5547 5547 5547 5547 5546 5546 5545 5544 5543 5542 5541 5540 5540 5538 5537 5535 5533 5532 5529 5527 5525 5523 5521 5519 5518 5517 5516 5515 5514 5514 5513 5512 5512
5542 5544 5543 5543 5542 5542 5542 5542 5541 5541 5541 5541 5540 5540 5539 5539 5538 5537 5536 5535 5534 5533 5532 5531 5529 5527 5526 5524 5521 5519 5517 5515 5513 5510 5509 5507 5506 5505 5504 5503 5502 5501 5500 5500
5535 5536 5536 5536 5535 5535 5535 5535 5535 5535 5535 5534 5533 5533 5532 5532 5531 5530 5529 5527 5526 5525 5524 5522 5520 5518 5516 5514 5512 5509 5507 5505 5502 5500 5498 5496 5494 5493 5493 5492 5491 5489 5488 5488
5528 5530 5529 5530 5529 5529 5529 5529 5528 5528 5528 5527 5526 5526 5525 5524 5523 5522 5521 5520 5518 5517 5515 5513 5511 5509 5506 5504 5502 5499 5497 5494 5492 5490 5487 5485 5483 5482 5481 5480 5479 5478 5477 5476
5523 5523 5523 5523 5523 5523 5522 5522 5522 5521 5521 5520 5519 5519 5518 5517 5516 5514 5513 5512 5510 5509 5507 5505 5502 5500 5497 5494 5492 5489 5487 5484 5482 5479 5477 5474 5473 5471 5470 5469 5468 5466 5465 5464
5516 5516 5516 5516 5516 5515 5515 5515 5515 5514 5514 5513 5512 5512 5510 5509 5508 5507 5505 5504 5502 5500 5498 5496 5493 5491 5487 5484 5482 5479 5476 5473 5471 5468 5466 5464 5462 5461 5459 5458 5456 5455 5454 5452
5509 5509 5509 5510 5509 5509 5508 5508 5508 5507 5506 5506 5505 5504 5503 5502 5501 5499 5498 5496 5494 5492 5490 5487 5484 5481 5478 5475 5472 5469 5466 5463 5460 5458 5455 5453 5451 5449 5448 5447 5446 5443 5442 5440
5503 5503 5503 5503 5503 5503 5502 5501 5501 5500 5500 5499 5498 5497 5496 5495 5493 5492 5490 5488 5486 5484 5481 5479 5476 5472 5469 5466 5463 5460 5456 5453 5450 5447 5445 5442 5440 5438 5436 5435 5434 5433 5431 5430
5496 5496 5497 5497 5496 5496 5495 5495 5494 5493 5492 5492 5491 5490 5489 5487 5486 5484 5482 5480 5478 5476 5473 5470 5467 5464 5461 5458 5454 5451 5447 5444 5441 5438 5435 5432 5430 5428 5426 5424 5423 5421 5420 5419
5489 5489 5490 5490 5489 5489 5488 5488 5487 5486 5485 5485 5483 5482 5481 5479 5478 5476 5474 5473 5470 5468 5465 5462 5459 5456 5453 5449 5446 5442 5439 5436 5432 5429 5426 5423 5421 5418 5416 5414 5412 5410 5409 5407
5481 5482 5482 5482 5482 5482 5481 5480 5479 5479 5478 5477 5476 5475 5473 5472 5470 5468 5467 5465 5463 5460 5458 5455 5451 5448 5445 5441 5437 5434 5431 5427 5424 5421 5418 5415 5412 5409 5406 5404 5402 5400 5399 5397
5474 5475 5475 5475 5475 5475 5474 5473 5472 5471 5471 5470 5469 5468 5466 5464 5463 5461 5459 5457 5455 5453 5450 5447 5444 5440 5437 5433 5430 5426 5423 5419 5416 5413 5410 5406 5403 5401 5398 5395 5393 5391 5389 5388
5467 5468 5468 5468 5467 5467 5466 5466 5465 5464 5463 5463 5462 5460 5459 5457 5456 5454 5452 5450 5448 5445 5442 5439 5436 5433 5429 5426 5422 5419 5415 5411 5408 5405 5401 5398 5396 5393 5390 5387 5385 5383 5381 5379
5460 5460 5460 5460 5460 5459 5459 5458 5458 5457 5456 5455 5454 5453 5452 5450 5449 5447 5445 5443 5440 5438 5435 5432 5428 5425 5422 5418 5415 5412 5408 5404 5401 5397 5394 5391 5388 5385 5382 5380 5378 5375 5373 5371
5453 5453 5453 5453 5452 5452 5451 5451 5450 5450 5449 5448 5447 5445 5444 5443 5441 5439 5437 5435 5433 5430 5427 5424 5421 5418 5415 5411 5408 5405 5401 5398 5394 5390 5387 5384 5381 5378 5375 5372 5370 5368 5366 5364
5446 5446 5446 5445 5445 5445 5444 5444 5443 5442 5441 5440 5439 5438 5436 5435 5433 5431 5430 5427 5425 5422 5419 5416 5413 5410 5407 5404 5401 5398 5394 5391 5387 5384 5380 5377 5374 5371 5368 5365 5363 5361 5359 5357
5439 5439 5439 5439 5438 5438 5438 5437 5436 5435 5434 5433 5432 5430 5429 5427 5425 5423 5421 5419 5417 5414 5411 5408 5405 5403 5400 5397 5394 5391 5388 5384 5381 5377 5374 5371 5368 5365 5362 5359 5356 5354 5352 5350
5433 5433 5432 5432 5432 5432 5431 5430 5429 5428 5427 5426 5424 5423 5421 5419 5418 5416 5413 5411 5409 5406 5403 5400 5398 5395 5393 5390 5387 5384 5381 5378 5375 5371 5368 5365 5362 5359 5356 5353 5350 5348 5346 5344
5427 5427 5427 5426 5426 5425 5425 5424 5423 5421 5420 5419 5417 5416 5414 5412 5410 5408 5406 5404 5401 5399 5396 5393 5391 5388 5386 5383 5381 5378 5375 5371 5369 5365 5362 5359 5356 5353 5350 5347 5344 5342 5340 5338
5421 5421 5421 5420 5420 5419 5418 5417 5416 5414 5413 5411 5410 5409 5407 5405 5403 5401 5399 5396 5394 5392 5389 5386 5384 5382 5379 5377 5374 5371 5368 5365 5363 5360 5357 5354 5350 5348 5345 5342 5339 5337 5335 5333